Location: Unspecified
(64.9000°N, 0.0000°E)
Time: 22:41:17
(UTC+00:00)

Transit 2A Rocket - Pass Details

Date: 19 June 2019
Orbit: 588 x 915 km, 66.7° (Epoch: 18 July)

Event Time Altitude Azimuth Distance (km) Brightness Sun altitude
Rises 17:48:04 0° 299° (WNW) 3,458 9.6 22.5°
Reaches altitude 10° 17:50:40 10° 296° (WNW) 2,478 9.2 22.2°
Maximum altitude 17:56:18 63° 217° (SW) 887 5.9 21.6°
Drops below altitude 10° 18:01:25 10° 138° (SE) 2,254 7.0 21.1°
Sets 18:03:41 0° 135° (SE) 3,123 7.7 20.9°
